Time,TemperatureF,DewpointF,PressureIn,WindDirection,WindDirectionDegrees,WindSpeedMPH,WindSpeedGustMPH,Humidity,HourlyPrecipIn,Conditions,Clouds,dailyrainin,SolarRadiationWatts/m^2,SoftwareType,DateUTC
2013-02-08 00:10:00,68.3,66.0,29.90,West,267,1.0,-999.0,92,-99.99,,,0.00,0,weatherlink.com 1.10,2013-02-08 05:10:00,
2013-02-08 00:25:00,68.1,66.0,29.90,SSW,192,0.0,-999.0,92,-99.99,,,0.00,0,weatherlink.com 1.10,2013-02-08 05:25:00,
2013-02-08 00:40:00,67.9,66.0,29.90,South,187,1.0,-999.0,92,-99.99,,,0.00,0,weatherlink.com 1.10,2013-02-08 05:40:00,
2013-02-08 00:55:00,67.7,65.0,29.89,West,264,0.0,-999.0,92,-99.99,,,0.00,0,weatherlink.com 1.10,2013-02-08 05:55:00,
2013-02-08 01:10:00,67.8,65.0,29.90,South,172,0.0,-999.0,91,-99.99,,,0.00,0,weatherlink.com 1.10,2013-02-08 06:10:00,
2013-02-08 01:26:00,67.9,65.0,29.89,West,276,2.0,-999.0,90,-99.99,,,0.00,0,weatherlink.com 1.10,2013-02-08 06:26:00,
2013-02-08 01:40:00,68.2,65.0,29.90,South,189,0.0,-999.0,89,-99.99,,,0.00,0,weatherlink.com 1.10,2013-02-08 06:40:00,
2013-02-08 01:55:00,68.0,65.0,29.90,WNW,294,0.0,-999.0,89,-99.99,,,0.00,0,weatherlink.com 1.10,2013-02-08 06:55:00,
2013-02-08 02:11:00,67.8,65.0,29.89,SSW,200,2.0,-999.0,90,-99.99,,,0.00,0,weatherlink.com 1.10,2013-02-08 07:11:00,
2013-02-08 02:25:00,67.6,65.0,29.89,SSW,210,0.0,-999.0,91,-99.99,,,0.00,0,weatherlink.com 1.10,2013-02-08 07:25:00,
2013-02-08 02:40:00,67.6,65.0,29.89,SSE,162,0.0,-999.0,91,-99.99,,,0.00,0,weatherlink.com 1.10,2013-02-08 07:40:00,
2013-02-08 02:56:00,67.6,65.0,29.89,SW,229,1.0,-999.0,91,-99.99,,,0.00,0,weatherlink.com 1.10,2013-02-08 07:56:00,
2013-02-08 03:11:00,67.6,65.0,29.90,NNW,343,0.0,-999.0,91,-99.99,,,0.00,0,weatherlink.com 1.10,2013-02-08 08:11:00,
2013-02-08 03:26:00,67.7,65.0,29.90,NNE,33,1.0,-999.0,92,-99.99,,,0.00,0,weatherlink.com 1.10,2013-02-08 08:26:00,
2013-02-08 03:41:00,67.9,66.0,29.90,South,174,0.0,-999.0,92,-99.99,,,0.00,0,weatherlink.com 1.10,2013-02-08 08:41:00,
2013-02-08 03:56:00,67.9,66.0,29.90,ESE,103,0.0,-999.0,93,-99.99,,,0.00,0,weatherlink.com 1.10,2013-02-08 08:56:00,
2013-02-08 04:11:00,67.8,66.0,29.91,NNE,13,0.0,-999.0,93,-99.99,,,0.00,0,weatherlink.com 1.10,2013-02-08 09:11:00,
2013-02-08 04:29:00,67.7,66.0,29.91,SE,126,0.0,-999.0,93,-99.99,,,0.00,0,weatherlink.com 1.10,2013-02-08 09:29:00,
2013-02-08 04:41:00,67.6,66.0,29.91,NNE,16,0.0,-999.0,94,-99.99,,,0.00,0,weatherlink.com 1.10,2013-02-08 09:41:00,
2013-02-08 04:56:00,67.6,66.0,29.91,NW,313,0.0,-999.0,94,-99.99,,,0.00,0,weatherlink.com 1.10,2013-02-08 09:56:00,
2013-02-08 05:11:00,67.8,66.0,29.92,NW,320,0.0,-999.0,94,-99.99,,,0.00,0,weatherlink.com 1.10,2013-02-08 10:11:00,
2013-02-08 05:26:00,67.4,66.0,29.92,NW,323,2.0,-999.0,94,-99.99,,,0.00,0,weatherlink.com 1.10,2013-02-08 10:26:00,
2013-02-08 05:41:00,66.9,65.0,29.93,NW,323,4.0,-999.0,94,-99.99,,,0.00,0,weatherlink.com 1.10,2013-02-08 10:41:00,
2013-02-08 05:56:00,66.5,65.0,29.93,NW,323,3.0,-999.0,94,-99.99,,,0.00,0,weatherlink.com 1.10,2013-02-08 10:56:00,
2013-02-08 06:11:00,66.2,64.0,29.94,NNW,330,1.0,-999.0,93,-99.99,,,0.00,0,weatherlink.com 1.10,2013-02-08 11:11:00,
2013-02-08 06:26:00,65.9,64.0,29.95,NW,309,7.0,-999.0,93,-99.99,,,0.00,0,weatherlink.com 1.10,2013-02-08 11:26:00,
2013-02-08 06:41:00,65.4,63.0,29.95,NNW,331,2.0,-999.0,93,-99.99,,,0.00,0,weatherlink.com 1.10,2013-02-08 11:41:00,
2013-02-08 06:56:00,65.1,63.0,29.96,NNW,334,4.0,-999.0,93,-99.99,,,0.00,0,weatherlink.com 1.10,2013-02-08 11:56:00,
2013-02-08 07:11:00,64.6,62.0,29.96,NNW,336,1.0,-999.0,92,-99.99,,,0.00,0,weatherlink.com 1.10,2013-02-08 12:11:00,
2013-02-08 07:26:00,64.2,62.0,29.97,NW,326,0.0,-999.0,92,-99.99,,,0.00,11,weatherlink.com 1.10,2013-02-08 12:26:00,
2013-02-08 07:42:00,63.9,62.0,29.98,NNW,338,0.0,-999.0,92,-99.99,,,0.00,28,weatherlink.com 1.10,2013-02-08 12:42:00,
2013-02-08 07:56:00,64.0,61.0,29.98,NNW,348,2.0,-999.0,91,-99.99,,,0.00,84,weatherlink.com 1.10,2013-02-08 12:56:00,
2013-02-08 08:11:00,64.2,61.0,29.99,North,11,2.0,-999.0,90,-99.99,,,0.00,142,weatherlink.com 1.10,2013-02-08 13:11:00,
2013-02-08 08:27:00,64.6,61.0,29.99,NNW,340,5.0,-999.0,89,-99.99,,,0.00,206,weatherlink.com 1.10,2013-02-08 13:27:00,
2013-02-08 08:41:00,64.5,61.0,30.00,NW,315,1.0,-999.0,88,-99.99,,,0.00,237,weatherlink.com 1.10,2013-02-08 13:41:00,
2013-02-08 08:57:00,65.3,61.0,30.00,NW,325,2.0,-999.0,87,-99.99,,,0.00,315,weatherlink.com 1.10,2013-02-08 13:57:00,
2013-02-08 09:12:00,65.4,61.0,30.00,North,5,3.0,-999.0,86,-99.99,,,0.00,367,weatherlink.com 1.10,2013-02-08 14:12:00,
2013-02-08 09:27:00,66.1,62.0,30.01,NNW,332,1.0,-999.0,85,-99.99,,,0.00,415,weatherlink.com 1.10,2013-02-08 14:27:00,
2013-02-08 09:42:00,67.0,62.0,30.02,NNW,344,1.0,-999.0,83,-99.99,,,0.00,464,weatherlink.com 1.10,2013-02-08 14:42:00,
2013-02-08 09:59:00,67.8,62.0,30.01,NW,305,2.0,-999.0,81,-99.99,,,0.00,508,weatherlink.com 1.10,2013-02-08 14:59:00,
2013-02-08 10:12:00,68.3,62.0,30.02,NW,322,3.0,-999.0,79,-99.99,,,0.00,550,weatherlink.com 1.10,2013-02-08 15:12:00,
2013-02-08 10:27:00,69.2,62.0,30.02,NW,320,1.0,-999.0,78,-99.99,,,0.00,591,weatherlink.com 1.10,2013-02-08 15:27:00,
2013-02-08 10:42:00,69.9,62.0,30.02,NNW,331,1.0,-999.0,76,-99.99,,,0.00,624,weatherlink.com 1.10,2013-02-08 15:42:00,
2013-02-08 10:57:00,70.4,62.0,30.02,NNW,328,4.0,-999.0,74,-99.99,,,0.00,657,weatherlink.com 1.10,2013-02-08 15:57:00,
2013-02-08 11:12:00,71.9,62.0,30.02,NNW,336,2.0,-999.0,72,-99.99,,,0.00,689,weatherlink.com 1.10,2013-02-08 16:12:00,
2013-02-08 11:27:00,73.1,63.0,30.01,North,360,2.0,-999.0,71,-99.99,,,0.00,710,weatherlink.com 1.10,2013-02-08 16:27:00,
2013-02-08 11:42:00,73.9,62.0,30.01,NNW,344,2.0,-999.0,67,-99.99,,,0.00,731,weatherlink.com 1.10,2013-02-08 16:42:00,
2013-02-08 11:58:00,74.1,62.0,30.01,NW,324,3.0,-999.0,65,-99.99,,,0.00,752,weatherlink.com 1.10,2013-02-08 16:58:00,
2013-02-08 12:12:00,74.2,60.0,30.01,NNW,338,4.0,-999.0,62,-99.99,,,0.00,761,weatherlink.com 1.10,2013-02-08 17:12:00,
2013-02-08 12:28:00,73.9,60.0,30.01,WNW,300,7.0,-999.0,63,-99.99,,,0.00,768,weatherlink.com 1.10,2013-02-08 17:28:00,
2013-02-08 12:43:00,74.6,61.0,30.00,West,274,0.0,-999.0,63,-99.99,,,0.00,772,weatherlink.com 1.10,2013-02-08 17:43:00,
2013-02-08 12:58:00,74.8,60.0,30.00,NW,316,1.0,-999.0,61,-99.99,,,0.00,770,weatherlink.com 1.10,2013-02-08 17:58:00,
2013-02-08 13:13:00,75.2,60.0,29.99,NW,311,2.0,-999.0,60,-99.99,,,0.00,761,weatherlink.com 1.10,2013-02-08 18:13:00,
2013-02-08 13:43:00,75.6,61.0,29.98,NNW,342,3.0,-999.0,60,-99.99,,,0.00,742,weatherlink.com 1.10,2013-02-08 18:43:00,
2013-02-08 13:58:00,76.2,61.0,29.98,NNW,345,0.0,-999.0,60,-99.99,,,0.00,722,weatherlink.com 1.10,2013-02-08 18:58:00,
2013-02-08 14:13:00,75.9,61.0,29.98,NW,325,6.0,-999.0,60,-99.99,,,0.00,700,weatherlink.com 1.10,2013-02-08 19:13:00,
2013-02-08 14:28:00,74.7,61.0,29.99,NNW,344,1.0,-999.0,63,-99.99,,,0.00,670,weatherlink.com 1.10,2013-02-08 19:28:00,
2013-02-08 14:43:00,74.8,62.0,29.99,NNW,334,5.0,-999.0,64,-99.99,,,0.00,640,weatherlink.com 1.10,2013-02-08 19:43:00,
2013-02-08 14:58:00,73.9,61.0,29.98,NNW,329,8.0,-999.0,65,-99.99,,,0.00,605,weatherlink.com 1.10,2013-02-08 19:58:00,
2013-02-08 15:13:00,73.3,62.0,29.98,East,96,1.0,-999.0,68,-99.99,,,0.00,563,weatherlink.com 1.10,2013-02-08 20:13:00,
2013-02-08 15:28:00,71.9,62.0,29.98,NNW,334,0.0,-999.0,71,-99.99,,,0.00,510,weatherlink.com 1.10,2013-02-08 20:28:00,
2013-02-08 15:43:00,72.2,63.0,29.98,NNW,338,3.0,-999.0,72,-99.99,,,0.00,200,weatherlink.com 1.10,2013-02-08 20:43:00,
2013-02-08 15:58:00,70.0,62.0,29.98,NW,313,1.0,-999.0,75,-99.99,,,0.00,304,weatherlink.com 1.10,2013-02-08 20:58:00,
2013-02-08 16:13:00,69.0,62.0,29.98,NNW,327,4.0,-999.0,77,-99.99,,,0.00,209,weatherlink.com 1.10,2013-02-08 21:13:00,
2013-02-08 16:28:00,68.7,61.0,29.98,NNE,17,5.0,-999.0,77,-99.99,,,0.00,125,weatherlink.com 1.10,2013-02-08 21:28:00,
2013-02-08 16:43:00,68.8,61.0,29.98,NNW,347,6.0,-999.0,76,-99.99,,,0.00,162,weatherlink.com 1.10,2013-02-08 21:43:00,
2013-02-08 16:57:00,68.2,61.0,29.98,NNW,335,3.0,-999.0,78,-99.99,,,0.00,42,weatherlink.com 1.10,2013-02-08 21:57:00,
2013-02-08 17:12:00,67.2,61.0,29.99,North,5,1.0,-999.0,79,-99.99,,,0.00,83,weatherlink.com 1.10,2013-02-08 22:12:00,
2013-02-08 17:27:00,66.4,60.0,29.99,NW,321,5.0,-999.0,80,-99.99,,,0.00,26,weatherlink.com 1.10,2013-02-08 22:27:00,
2013-02-08 17:42:00,65.2,60.0,29.99,NNW,333,5.0,-999.0,82,-99.99,,,0.00,21,weatherlink.com 1.10,2013-02-08 22:42:00,
2013-02-08 17:57:00,64.4,59.0,30.00,North,350,1.0,-999.0,83,-99.99,,,0.00,14,weatherlink.com 1.10,2013-02-08 22:57:00,
2013-02-08 18:12:00,63.4,59.0,30.00,NW,312,5.0,-999.0,84,-99.99,,,0.00,5,weatherlink.com 1.10,2013-02-08 23:12:00,
2013-02-08 18:27:00,63.0,59.0,30.01,NW,315,3.0,-999.0,85,-99.99,,,0.00,0,weatherlink.com 1.10,2013-02-08 23:27:00,
2013-02-08 18:42:00,62.7,59.0,30.01,NW,315,2.0,-999.0,86,-99.99,,,0.00,0,weatherlink.com 1.10,2013-02-08 23:42:00,
2013-02-08 18:58:00,62.4,58.0,30.02,NW,306,4.0,-999.0,86,-99.99,,,0.00,0,weatherlink.com 1.10,2013-02-08 23:58:00,
2013-02-08 19:13:00,62.2,58.0,30.03,NNW,332,3.0,-999.0,86,-99.99,,,0.00,0,weatherlink.com 1.10,2013-02-09 00:13:00,
2013-02-08 19:27:00,62.0,58.0,30.03,NNW,344,3.0,-999.0,86,-99.99,,,0.00,0,weatherlink.com 1.10,2013-02-09 00:27:00,
2013-02-08 19:42:00,62.1,58.0,30.04,NW,323,4.0,-999.0,86,-99.99,,,0.00,0,weatherlink.com 1.10,2013-02-09 00:42:00,
2013-02-08 19:57:00,61.8,57.0,30.04,NW,319,3.0,-999.0,85,-99.99,,,0.00,0,weatherlink.com 1.10,2013-02-09 00:57:00,
2013-02-08 20:12:00,61.5,57.0,30.05,WNW,292,1.0,-999.0,86,-99.99,,,0.00,0,weatherlink.com 1.10,2013-02-09 01:12:00,
2013-02-08 20:27:00,61.1,57.0,30.05,NNW,339,0.0,-999.0,86,-99.99,,,0.00,0,weatherlink.com 1.10,2013-02-09 01:27:00,
2013-02-08 20:42:00,60.7,57.0,30.06,NNW,339,0.0,-999.0,87,-99.99,,,0.00,0,weatherlink.com 1.10,2013-02-09 01:42:00,
2013-02-08 20:57:00,60.4,57.0,30.06,NNW,338,0.0,-999.0,88,-99.99,,,0.00,0,weatherlink.com 1.10,2013-02-09 01:57:00,
2013-02-08 21:12:00,60.0,57.0,30.06,NNW,339,0.0,-999.0,88,-99.99,,,0.00,0,weatherlink.com 1.10,2013-02-09 02:12:00,
2013-02-08 21:28:00,59.8,57.0,30.07,NNW,339,0.0,-999.0,89,-99.99,,,0.00,0,weatherlink.com 1.10,2013-02-09 02:28:00,
2013-02-08 21:43:00,59.5,57.0,30.07,NNW,338,0.0,-999.0,90,-99.99,,,0.00,0,weatherlink.com 1.10,2013-02-09 02:43:00,
2013-02-08 21:58:00,59.2,57.0,30.07,NNW,338,0.0,-999.0,91,-99.99,,,0.00,0,weatherlink.com 1.10,2013-02-09 02:58:00,
2013-02-08 22:13:00,59.2,57.0,30.07,NNW,339,0.0,-999.0,91,-99.99,,,0.00,0,weatherlink.com 1.10,2013-02-09 03:13:00,
2013-02-08 22:28:00,59.2,57.0,30.07,NNW,339,0.0,-999.0,91,-99.99,,,0.00,0,weatherlink.com 1.10,2013-02-09 03:28:00,
2013-02-08 22:43:00,58.8,56.0,30.07,NNW,339,0.0,-999.0,91,-99.99,,,0.00,0,weatherlink.com 1.10,2013-02-09 03:43:00,
2013-02-08 22:58:00,58.5,56.0,30.07,NNW,339,0.0,-999.0,92,-99.99,,,0.00,0,weatherlink.com 1.10,2013-02-09 03:58:00,
2013-02-08 23:13:00,58.2,56.0,30.08,NNW,339,0.0,-999.0,92,-99.99,,,0.00,0,weatherlink.com 1.10,2013-02-09 04:13:00,
2013-02-08 23:28:00,58.2,56.0,30.07,NNW,339,0.0,-999.0,93,-99.99,,,0.00,0,weatherlink.com 1.10,2013-02-09 04:28:00,
2013-02-08 23:43:00,58.5,57.0,30.08,NNW,339,0.0,-999.0,93,-99.99,,,0.00,0,weatherlink.com 1.10,2013-02-09 04:43:00,
2013-02-08 23:58:00,58.0,56.0,30.07,NNW,339,0.0,-999.0,93,-99.99,,,0.00,0,weatherlink.com 1.10,2013-02-09 04:58:00,